TimeMDT,TemperatureF,Dew PointF,Humidity,Sea Level PressureIn,VisibilityMPH,Wind Direction,Wind SpeedMPH,Gust SpeedMPH,PrecipitationIn,Events,Conditions,WindDirDegrees,DateUTC
12:15 AM,21.2,14.0,74,29.98,10.0,WNW,5.8,-,N/A,,Overcast,290,2014-03-22 06:15:00
2:55 AM,17.6,12.2,79,29.97,10.0,WNW,3.5,-,N/A,,Mostly Cloudy,300,2014-03-22 08:55:00
3:56 AM,17.6,10.4,73,29.97,10.0,WNW,6.9,-,N/A,,Clear,300,2014-03-22 09:56:00
4:55 AM,12.2,8.6,85,29.97,10.0,NW,6.9,-,N/A,,Mostly Cloudy,320,2014-03-22 10:55:00
6:15 AM,10.4,5.0,79,30.01,10.0,WNW,5.8,-,N/A,,Clear,300,2014-03-22 12:15:00
7:16 AM,10.4,5.0,79,30.03,10.0,NW,5.8,-,N/A,,Mostly Cloudy,310,2014-03-22 13:16:00
10:56 AM,21.2,12.2,68,30.09,10.0,NW,5.8,-,N/A,,Clear,320,2014-03-22 16:56:00
12:16 PM,26.6,12.2,55,30.10,10.0,NNE,3.5,-,N/A,,Clear,20,2014-03-22 18:16:00
1:34 PM,30.2,12.2,47,30.11,10.0,North,4.6,-,N/A,,Clear,10,2014-03-22 19:34:00
1:54 PM,30.2,12.2,47,30.10,10.0,NNW,5.8,-,N/A,,Clear,330,2014-03-22 19:54:00
2:34 PM,32.0,12.2,44,30.10,10.0,WNW,10.4,-,N/A,,Clear,290,2014-03-22 20:34:00
2:54 PM,32.0,12.2,44,30.10,10.0,WNW,10.4,-,N/A,,Clear,290,2014-03-22 20:54:00
3:56 PM,33.8,10.4,38,30.10,10.0,WNW,8.1,-,N/A,,Clear,290,2014-03-22 21:56:00
4:16 PM,33.8,12.2,41,30.11,10.0,West,10.4,-,N/A,,Clear,270,2014-03-22 22:16:00
4:57 PM,33.8,12.2,41,30.11,10.0,West,9.2,-,N/A,,Clear,280,2014-03-22 22:57:00
5:15 PM,33.8,12.2,41,30.11,10.0,West,8.1,-,N/A,,Scattered Clouds,280,2014-03-22 23:15:00
5:36 PM,32.0,12.2,44,30.11,10.0,West,10.4,-,N/A,,Scattered Clouds,280,2014-03-22 23:36:00
6:14 PM,32.0,14.0,48,30.13,10.0,West,8.1,-,N/A,,Scattered Clouds,270,2014-03-23 00:14:00
6:56 PM,30.2,12.2,47,30.13,10.0,West,8.1,-,N/A,,Clear,270,2014-03-23 00:56:00
7:54 PM,24.8,12.2,59,30.14,10.0,NNW,5.8,-,N/A,,Clear,330,2014-03-23 01:54:00
8:37 PM,21.2,12.2,68,30.16,10.0,WNW,5.8,-,N/A,,Scattered Clouds,300,2014-03-23 02:37:00
10:16 PM,19.4,10.4,68,30.18,10.0,WNW,6.9,-,N/A,,Clear,290,2014-03-23 04:16:00
10:36 PM,15.8,8.6,73,30.18,10.0,West,5.8,-,N/A,,Scattered Clouds,260,2014-03-23 04:36:00
11:16 PM,15.8,8.6,73,30.19,10.0,Calm,Calm,-,N/A,,Scattered Clouds,0,2014-03-23 05:16:00